Time,TemperatureF,DewpointF,PressureIn,WindDirection,WindDirectionDegrees,WindSpeedMPH,WindSpeedGustMPH,Humidity,HourlyPrecipIn,Conditions,Clouds,dailyrainin,SoftwareType,DateUTC
2013-01-02 00:00:00,21.0,6.6,32.27,NW,310,0.0,0.0,53,-99.99,,,0.00,LWC V2.10 B1813,2013-01-02 05:00:00,
2013-01-02 00:05:00,20.8,6.4,32.27,NW,310,0.0,0.0,53,-99.99,,,0.00,LWC V2.10 B1813,2013-01-02 05:05:00,
2013-01-02 00:10:00,20.5,6.5,32.27,WNW,303,0.0,0.0,54,-99.99,,,0.00,LWC V2.10 B1813,2013-01-02 05:10:00,
2013-01-02 00:15:00,20.7,6.3,32.27,NW,304,0.0,0.0,53,-99.99,,,0.00,LWC V2.10 B1813,2013-01-02 05:15:00,
2013-01-02 00:20:00,20.5,6.1,32.27,NNW,331,0.0,0.0,53,-99.99,,,0.00,LWC V2.10 B1813,2013-01-02 05:20:00,
2013-01-02 00:25:00,20.1,6.2,32.27,NW,305,0.0,0.0,54,-99.99,,,0.00,LWC V2.10 B1813,2013-01-02 05:25:00,
2013-01-02 00:30:00,20.1,6.2,32.27,NW,305,0.0,0.0,54,-99.99,,,0.00,LWC V2.10 B1813,2013-01-02 05:30:00,
2013-01-02 00:35:00,20.1,6.2,32.27,NW,304,0.0,0.0,54,-99.99,,,0.00,LWC V2.10 B1813,2013-01-02 05:35:00,
2013-01-02 00:40:00,20.5,6.1,32.27,WNW,299,0.0,0.0,53,-99.99,,,0.00,LWC V2.10 B1813,2013-01-02 05:40:00,
2013-01-02 00:45:00,20.8,6.4,32.27,NW,305,0.0,0.0,53,-99.99,,,0.00,LWC V2.10 B1813,2013-01-02 05:45:00,
2013-01-02 00:50:00,20.7,6.3,32.27,NW,305,0.0,0.0,53,-99.99,,,0.00,LWC V2.10 B1813,2013-01-02 05:50:00,
2013-01-02 00:55:00,20.3,5.9,32.27,NW,305,0.0,0.0,53,-99.99,,,0.00,LWC V2.10 B1813,2013-01-02 05:55:00,
2013-01-02 01:00:00,19.9,5.6,32.27,NW,305,0.0,0.0,53,-99.99,,,0.00,LWC V2.10 B1813,2013-01-02 06:00:00,
2013-01-02 01:05:00,19.8,5.8,32.27,NW,305,0.0,0.0,54,-99.99,,,0.00,LWC V2.10 B1813,2013-01-02 06:05:00,
2013-01-02 01:10:00,19.6,5.7,32.27,NW,305,0.0,0.0,54,-99.99,,,0.00,LWC V2.10 B1813,2013-01-02 06:10:00,
2013-01-02 01:15:00,19.2,5.7,32.27,NW,305,0.0,0.0,55,-99.99,,,0.00,LWC V2.10 B1813,2013-01-02 06:15:00,
2013-01-02 01:20:00,19.2,6.1,32.27,NW,305,0.0,0.0,56,-99.99,,,0.00,LWC V2.10 B1813,2013-01-02 06:20:00,
2013-01-02 01:25:00,19.4,6.7,32.27,NW,305,0.0,0.0,57,-99.99,,,0.00,LWC V2.10 B1813,2013-01-02 06:25:00,
2013-01-02 01:30:00,19.4,6.7,32.27,NW,305,0.0,0.0,57,-99.99,,,0.00,LWC V2.10 B1813,2013-01-02 06:30:00,
2013-01-02 01:35:00,19.2,6.5,32.27,NW,305,0.0,0.0,57,-99.99,,,0.00,LWC V2.10 B1813,2013-01-02 06:35:00,
2013-01-02 01:40:00,19.4,7.1,32.27,NW,305,0.0,0.0,58,-99.99,,,0.00,LWC V2.10 B1813,2013-01-02 06:40:00,
2013-01-02 01:45:00,19.4,7.1,32.27,NW,305,0.0,0.0,58,-99.99,,,0.00,LWC V2.10 B1813,2013-01-02 06:45:00,
2013-01-02 01:50:00,19.2,6.9,32.27,NW,305,0.0,0.0,58,-99.99,,,0.00,LWC V2.10 B1813,2013-01-02 06:50:00,
2013-01-02 01:55:00,19.0,7.1,32.27,NW,305,0.0,0.0,59,-99.99,,,0.00,LWC V2.10 B1813,2013-01-02 06:55:00,
2013-01-02 02:00:00,18.7,6.8,32.27,NW,305,0.0,0.0,59,-99.99,,,0.00,LWC V2.10 B1813,2013-01-02 07:00:00,
2013-01-02 02:05:00,18.5,7.3,32.27,NW,305,0.0,0.0,61,-99.99,,,0.00,LWC V2.10 B1813,2013-01-02 07:05:00,
2013-01-02 02:10:00,19.0,8.2,32.27,NW,305,0.0,0.0,62,-99.99,,,0.00,LWC V2.10 B1813,2013-01-02 07:10:00,
2013-01-02 02:15:00,19.4,8.2,32.27,NW,305,0.0,0.0,61,-99.99,,,0.00,LWC V2.10 B1813,2013-01-02 07:15:00,
2013-01-02 02:20:00,19.2,7.3,32.27,NW,305,0.0,0.0,59,-99.99,,,0.00,LWC V2.10 B1813,2013-01-02 07:20:00,
2013-01-02 02:25:00,19.0,7.5,32.27,NW,305,0.0,0.0,60,-99.99,,,0.00,LWC V2.10 B1813,2013-01-02 07:25:00,
2013-01-02 02:30:00,19.0,7.8,32.27,NW,305,0.0,0.0,61,-99.99,,,0.00,LWC V2.10 B1813,2013-01-02 07:30:00,
2013-01-02 02:35:00,18.9,8.0,32.27,NW,305,0.0,0.0,62,-99.99,,,0.00,LWC V2.10 B1813,2013-01-02 07:35:00,
2013-01-02 02:40:00,18.9,8.4,32.27,NW,305,0.0,0.0,63,-99.99,,,0.00,LWC V2.10 B1813,2013-01-02 07:40:00,
2013-01-02 02:45:00,19.0,8.9,32.27,NW,305,0.0,0.0,64,-99.99,,,0.00,LWC V2.10 B1813,2013-01-02 07:45:00,
2013-01-02 02:50:00,19.0,9.2,32.27,NW,305,0.0,0.0,65,-99.99,,,0.00,LWC V2.10 B1813,2013-01-02 07:50:00,
2013-01-02 02:55:00,18.9,9.4,32.27,NW,305,0.0,0.0,66,-99.99,,,0.00,LWC V2.10 B1813,2013-01-02 07:55:00,
2013-01-02 03:00:00,18.5,9.1,32.27,NW,305,0.0,0.0,66,-99.99,,,0.00,LWC V2.10 B1813,2013-01-02 08:00:00,
2013-01-02 03:05:00,18.5,9.7,32.27,NW,305,0.0,0.0,68,-99.99,,,0.00,LWC V2.10 B1813,2013-01-02 08:05:00,
2013-01-02 03:10:00,18.3,9.6,32.27,NW,305,0.0,0.0,68,-99.99,,,0.00,LWC V2.10 B1813,2013-01-02 08:10:00,
2013-01-02 03:15:00,18.3,9.9,32.27,NW,305,0.0,0.0,69,-99.99,,,0.00,LWC V2.10 B1813,2013-01-02 08:15:00,
2013-01-02 03:20:00,18.1,10.0,32.27,NW,305,0.0,0.0,70,-99.99,,,0.00,LWC V2.10 B1813,2013-01-02 08:20:00,
2013-01-02 03:25:00,18.1,10.3,32.27,NW,305,0.0,0.0,71,-99.99,,,0.00,LWC V2.10 B1813,2013-01-02 08:25:00,
2013-01-02 03:30:00,18.0,9.9,32.27,NW,305,0.0,0.0,70,-99.99,,,0.00,LWC V2.10 B1813,2013-01-02 08:30:00,
2013-01-02 03:35:00,17.8,9.4,32.27,NW,305,0.0,0.0,69,-99.99,,,0.00,LWC V2.10 B1813,2013-01-02 08:35:00,
2013-01-02 03:40:00,17.8,8.7,32.27,NW,305,0.0,0.0,67,-99.99,,,0.00,LWC V2.10 B1813,2013-01-02 08:40:00,
2013-01-02 03:45:00,17.8,8.4,32.27,NW,305,0.0,0.0,66,-99.99,,,0.00,LWC V2.10 B1813,2013-01-02 08:45:00,
2013-01-02 03:50:00,18.0,7.9,32.27,NW,305,0.0,0.0,64,-99.99,,,0.00,LWC V2.10 B1813,2013-01-02 08:50:00,
2013-01-02 03:55:00,18.0,7.5,32.27,NW,305,0.0,0.0,63,-99.99,,,0.00,LWC V2.10 B1813,2013-01-02 08:55:00,
2013-01-02 04:00:00,17.8,7.4,32.27,NW,305,0.0,0.0,63,-99.99,,,0.00,LWC V2.10 B1813,2013-01-02 09:00:00,
2013-01-02 04:05:00,17.8,7.4,32.27,NW,305,0.0,0.0,63,-99.99,,,0.00,LWC V2.10 B1813,2013-01-02 09:05:00,
2013-01-02 04:10:00,17.8,7.4,32.27,NW,305,0.0,0.0,63,-99.99,,,0.00,LWC V2.10 B1813,2013-01-02 09:10:00,
2013-01-02 04:15:00,17.8,7.4,32.27,NW,305,0.0,0.0,63,-99.99,,,0.00,LWC V2.10 B1813,2013-01-02 09:15:00,
2013-01-02 04:20:00,18.5,7.7,32.27,WSW,249,0.0,0.0,62,-99.99,,,0.00,LWC V2.10 B1813,2013-01-02 09:20:00,
2013-01-02 04:25:00,18.3,7.2,32.27,WSW,249,0.0,0.0,61,-99.99,,,0.00,LWC V2.10 B1813,2013-01-02 09:25:00,
2013-01-02 04:30:00,18.1,7.0,32.27,WSW,249,0.0,0.0,61,-99.99,,,0.00,LWC V2.10 B1813,2013-01-02 09:30:00,
2013-01-02 04:35:00,18.0,6.8,32.27,WSW,249,0.0,0.0,61,-99.99,,,0.00,LWC V2.10 B1813,2013-01-02 09:35:00,
2013-01-02 04:40:00,18.0,6.8,32.27,WSW,249,0.0,0.0,61,-99.99,,,0.00,LWC V2.10 B1813,2013-01-02 09:40:00,
2013-01-02 04:45:00,17.8,7.0,32.27,WSW,249,0.0,0.0,62,-99.99,,,0.00,LWC V2.10 B1813,2013-01-02 09:45:00,
2013-01-02 04:50:00,17.8,7.0,32.27,WSW,249,0.0,0.0,62,-99.99,,,0.00,LWC V2.10 B1813,2013-01-02 09:50:00,
2013-01-02 04:55:00,17.8,7.4,32.27,WSW,249,0.0,0.0,63,-99.99,,,0.00,LWC V2.10 B1813,2013-01-02 09:55:00,
2013-01-02 05:01:00,17.4,7.7,32.27,WSW,249,0.0,0.0,65,-99.99,,,0.00,LWC V2.10 B1813,2013-01-02 10:01:00,
2013-01-02 05:06:00,17.1,7.4,32.27,WSW,249,0.0,0.0,65,-99.99,,,0.00,LWC V2.10 B1813,2013-01-02 10:06:00,
2013-01-02 05:11:00,16.9,9.4,32.27,WSW,249,0.0,0.0,72,-99.99,,,0.00,LWC V2.10 B1813,2013-01-02 10:11:00,
2013-01-02 05:16:00,16.7,10.2,32.27,WSW,249,0.0,0.0,75,-99.99,,,0.00,LWC V2.10 B1813,2013-01-02 10:16:00,
2013-01-02 05:21:00,16.9,10.9,32.27,WSW,249,0.0,0.0,77,-99.99,,,0.00,LWC V2.10 B1813,2013-01-02 10:21:00,
2013-01-02 05:26:00,16.7,11.1,32.27,WSW,249,0.0,0.0,78,-99.99,,,0.00,LWC V2.10 B1813,2013-01-02 10:26:00,
2013-01-02 05:31:00,16.5,10.9,32.27,WSW,249,0.0,0.0,78,-99.99,,,0.00,LWC V2.10 B1813,2013-01-02 10:31:00,
2013-01-02 05:36:00,16.7,10.8,32.27,WSW,249,0.0,0.0,77,-99.99,,,0.00,LWC V2.10 B1813,2013-01-02 10:36:00,
2013-01-02 05:41:00,16.7,9.9,32.27,WSW,249,0.0,0.0,74,-99.99,,,0.00,LWC V2.10 B1813,2013-01-02 10:41:00,
2013-01-02 05:46:00,16.9,10.4,32.27,WSW,249,0.0,0.0,75,-99.99,,,0.00,LWC V2.10 B1813,2013-01-02 10:46:00,
2013-01-02 05:51:00,16.7,10.2,32.27,WSW,249,0.0,0.0,75,-99.99,,,0.00,LWC V2.10 B1813,2013-01-02 10:51:00,
2013-01-02 05:56:00,16.7,9.9,32.27,WSW,249,0.0,0.0,74,-99.99,,,0.00,LWC V2.10 B1813,2013-01-02 10:56:00,
2013-01-02 06:01:00,16.9,9.8,32.27,WSW,249,0.0,0.0,73,-99.99,,,0.00,LWC V2.10 B1813,2013-01-02 11:01:00,
2013-01-02 06:06:00,17.1,9.9,32.27,WSW,249,0.0,0.0,73,-99.99,,,0.00,LWC V2.10 B1813,2013-01-02 11:06:00,
2013-01-02 06:11:00,17.1,9.9,32.27,WSW,249,0.0,0.0,73,-99.99,,,0.00,LWC V2.10 B1813,2013-01-02 11:11:00,
2013-01-02 06:16:00,16.9,10.1,32.27,WSW,249,0.0,0.0,74,-99.99,,,0.00,LWC V2.10 B1813,2013-01-02 11:16:00,
2013-01-02 06:21:00,16.5,9.7,32.27,WSW,249,0.0,0.0,74,-99.99,,,0.00,LWC V2.10 B1813,2013-01-02 11:21:00,
2013-01-02 06:26:00,16.5,10.0,32.27,WSW,249,0.0,0.0,75,-99.99,,,0.00,LWC V2.10 B1813,2013-01-02 11:26:00,
2013-01-02 06:31:00,16.2,9.7,32.27,WSW,249,0.0,0.0,75,-99.99,,,0.00,LWC V2.10 B1813,2013-01-02 11:31:00,
2013-01-02 06:36:00,16.0,9.8,32.27,WSW,249,0.0,0.0,76,-99.99,,,0.00,LWC V2.10 B1813,2013-01-02 11:36:00,
2013-01-02 06:41:00,15.8,9.9,32.27,WSW,249,0.0,0.0,77,-99.99,,,0.00,LWC V2.10 B1813,2013-01-02 11:41:00,
2013-01-02 06:46:00,15.6,9.4,32.27,WSW,249,0.0,0.0,76,-99.99,,,0.00,LWC V2.10 B1813,2013-01-02 11:46:00,
2013-01-02 06:51:00,15.6,9.1,32.27,WSW,249,0.0,0.0,75,-99.99,,,0.00,LWC V2.10 B1813,2013-01-02 11:51:00,
2013-01-02 06:56:00,15.8,9.3,32.27,WSW,249,0.0,0.0,75,-99.99,,,0.00,LWC V2.10 B1813,2013-01-02 11:56:00,
2013-01-02 07:01:00,16.0,9.5,32.27,SSW,212,0.0,0.0,75,-99.99,,,0.00,LWC V2.10 B1813,2013-01-02 12:01:00,
2013-01-02 07:06:00,16.2,9.4,32.27,SW,220,0.0,0.0,74,-99.99,,,0.00,LWC V2.10 B1813,2013-01-02 12:06:00,
2013-01-02 07:11:00,16.0,8.9,32.27,SW,221,0.0,0.0,73,-99.99,,,0.00,LWC V2.10 B1813,2013-01-02 12:11:00,
2013-01-02 07:16:00,15.6,8.8,32.27,SW,218,0.0,0.0,74,-99.99,,,0.00,LWC V2.10 B1813,2013-01-02 12:16:00,
2013-01-02 07:21:00,15.4,8.7,32.27,SW,218,0.0,0.0,74,-99.99,,,0.00,LWC V2.10 B1813,2013-01-02 12:21:00,
2013-01-02 07:26:00,15.4,9.0,32.27,SW,218,0.0,0.0,75,-99.99,,,0.00,LWC V2.10 B1813,2013-01-02 12:26:00,
2013-01-02 07:31:00,15.3,8.8,32.27,SW,218,0.0,0.0,75,-99.99,,,0.00,LWC V2.10 B1813,2013-01-02 12:31:00,
2013-01-02 07:36:00,15.4,9.5,32.27,SW,218,0.0,0.0,77,-99.99,,,0.00,LWC V2.10 B1813,2013-01-02 12:36:00,
2013-01-02 07:41:00,15.3,9.7,32.27,SW,218,0.0,0.0,78,-99.99,,,0.00,LWC V2.10 B1813,2013-01-02 12:41:00,
2013-01-02 07:46:00,15.1,10.0,32.27,SW,218,0.0,0.0,80,-99.99,,,0.00,LWC V2.10 B1813,2013-01-02 12:46:00,
2013-01-02 07:51:00,15.3,10.2,32.27,SSW,211,0.0,0.0,80,-99.99,,,0.00,LWC V2.10 B1813,2013-01-02 12:51:00,
2013-01-02 07:56:00,15.6,10.3,32.27,SSW,211,0.0,0.0,79,-99.99,,,0.00,LWC V2.10 B1813,2013-01-02 12:56:00,
2013-01-02 08:01:00,16.2,10.2,32.27,SSW,207,0.0,0.0,77,-99.99,,,0.00,LWC V2.10 B1813,2013-01-02 13:01:00,
2013-01-02 08:06:00,16.0,9.5,32.27,SSW,201,0.0,0.0,75,-99.99,,,0.00,LWC V2.10 B1813,2013-01-02 13:06:00,
2013-01-02 08:11:00,15.8,9.3,32.27,SW,220,0.0,0.0,75,-99.99,,,0.00,LWC V2.10 B1813,2013-01-02 13:11:00,
2013-01-02 08:16:00,16.0,9.2,32.27,SW,220,0.0,0.0,74,-99.99,,,0.00,LWC V2.10 B1813,2013-01-02 13:16:00,
2013-01-02 08:21:00,16.0,8.9,32.27,SW,220,0.0,0.0,73,-99.99,,,0.00,LWC V2.10 B1813,2013-01-02 13:21:00,
2013-01-02 08:26:00,16.2,9.1,32.27,SW,220,0.0,0.0,73,-99.99,,,0.00,LWC V2.10 B1813,2013-01-02 13:26:00,
2013-01-02 08:31:00,16.5,9.4,32.27,SW,220,0.0,0.0,73,-99.99,,,0.00,LWC V2.10 B1813,2013-01-02 13:31:00,
2013-01-02 08:36:00,16.7,9.3,32.27,SW,220,0.0,0.0,72,-99.99,,,0.00,LWC V2.10 B1813,2013-01-02 13:36:00,
2013-01-02 08:41:00,16.7,9.6,32.27,SW,220,0.0,0.0,73,-99.99,,,0.00,LWC V2.10 B1813,2013-01-02 13:41:00,
2013-01-02 08:46:00,16.5,9.4,32.27,SW,220,0.0,0.0,73,-99.99,,,0.00,LWC V2.10 B1813,2013-01-02 13:46:00,
2013-01-02 08:51:00,16.2,9.4,32.27,SW,220,0.0,0.0,74,-99.99,,,0.00,LWC V2.10 B1813,2013-01-02 13:51:00,
2013-01-02 08:56:00,16.3,9.8,32.27,SW,220,0.0,0.0,75,-99.99,,,0.00,LWC V2.10 B1813,2013-01-02 13:56:00,
2013-01-02 09:01:00,16.5,10.0,32.27,SW,220,0.0,0.0,75,-99.99,,,0.00,LWC V2.10 B1813,2013-01-02 14:01:00,
2013-01-02 09:06:00,16.7,10.2,32.27,SW,220,0.0,0.0,75,-99.99,,,0.00,LWC V2.10 B1813,2013-01-02 14:06:00,
2013-01-02 09:11:00,17.1,10.5,32.27,SW,220,0.0,0.0,75,-99.99,,,0.00,LWC V2.10 B1813,2013-01-02 14:11:00,
2013-01-02 09:16:00,17.2,10.7,32.27,SW,220,0.0,0.0,75,-99.99,,,0.00,LWC V2.10 B1813,2013-01-02 14:16:00,
2013-01-02 09:21:00,17.2,10.7,32.27,SW,220,0.0,0.0,75,-99.99,,,0.00,LWC V2.10 B1813,2013-01-02 14:21:00,
2013-01-02 09:26:00,17.1,10.2,32.27,SW,220,0.0,0.0,74,-99.99,,,0.00,LWC V2.10 B1813,2013-01-02 14:26:00,
2013-01-02 09:31:00,17.1,10.2,32.27,SW,220,0.0,0.0,74,-99.99,,,0.00,LWC V2.10 B1813,2013-01-02 14:31:00,
2013-01-02 09:36:00,17.4,10.6,32.27,SW,220,0.0,0.0,74,-99.99,,,0.00,LWC V2.10 B1813,2013-01-02 14:36:00,
2013-01-02 09:41:00,17.8,10.3,32.27,SW,221,0.0,0.0,72,-99.99,,,0.00,LWC V2.10 B1813,2013-01-02 14:41:00,
2013-01-02 09:46:00,18.7,10.9,32.27,SW,220,0.0,0.0,71,-99.99,,,0.00,LWC V2.10 B1813,2013-01-02 14:46:00,
2013-01-02 09:51:00,19.2,10.4,32.27,SW,220,0.0,0.0,68,-99.99,,,0.00,LWC V2.10 B1813,2013-01-02 14:51:00,
2013-01-02 09:56:00,19.6,10.1,32.27,SW,220,0.0,0.0,66,-99.99,,,0.00,LWC V2.10 B1813,2013-01-02 14:56:00,
2013-01-02 10:01:00,19.0,9.6,32.27,SW,220,0.0,0.0,66,-99.99,,,0.00,LWC V2.10 B1813,2013-01-02 15:01:00,
2013-01-02 10:06:00,19.6,10.1,32.27,SW,220,0.0,0.0,66,-99.99,,,0.00,LWC V2.10 B1813,2013-01-02 15:06:00,
2013-01-02 10:11:00,20.3,10.4,32.27,SW,220,0.0,0.0,65,-99.99,,,0.00,LWC V2.10 B1813,2013-01-02 15:11:00,
2013-01-02 10:16:00,20.5,10.3,32.27,SW,220,0.0,0.0,64,-99.99,,,0.00,LWC V2.10 B1813,2013-01-02 15:16:00,
2013-01-02 10:21:00,21.0,10.4,32.27,SW,220,0.0,0.0,63,-99.99,,,0.00,LWC V2.10 B1813,2013-01-02 15:21:00,
2013-01-02 10:26:00,21.2,10.2,32.27,SW,220,0.0,0.0,62,-99.99,,,0.00,LWC V2.10 B1813,2013-01-02 15:26:00,
2013-01-02 10:31:00,21.4,10.1,32.27,WSW,240,0.0,0.0,61,-99.99,,,0.00,LWC V2.10 B1813,2013-01-02 15:31:00,
2013-01-02 10:36:00,21.2,9.5,32.27,WSW,245,0.0,0.0,60,-99.99,,,0.00,LWC V2.10 B1813,2013-01-02 15:36:00,
2013-01-02 10:41:00,21.7,10.0,32.27,SW,229,0.0,0.0,60,-99.99,,,0.00,LWC V2.10 B1813,2013-01-02 15:41:00,
2013-01-02 10:46:00,21.9,9.8,32.27,WSW,258,0.0,0.0,59,-99.99,,,0.00,LWC V2.10 B1813,2013-01-02 15:46:00,
2013-01-02 10:51:00,21.9,9.8,32.27,SW,221,0.0,0.0,59,-99.99,,,0.00,LWC V2.10 B1813,2013-01-02 15:51:00,
2013-01-02 10:56:00,22.5,9.9,32.27,SSW,213,0.0,0.0,58,-99.99,,,0.00,LWC V2.10 B1813,2013-01-02 15:56:00,
2013-01-02 11:01:00,22.5,9.6,32.27,West,261,0.0,0.0,57,-99.99,,,0.00,LWC V2.10 B1813,2013-01-02 16:01:00,
2013-01-02 11:06:00,22.5,9.6,32.27,SW,217,0.0,0.0,57,-99.99,,,0.00,LWC V2.10 B1813,2013-01-02 16:06:00,
2013-01-02 11:11:00,22.8,9.5,32.27,SW,234,2.2,4.0,56,-99.99,,,0.00,LWC V2.10 B1813,2013-01-02 16:11:00,
2013-01-02 11:16:00,22.1,8.0,32.27,SW,219,4.0,4.0,54,-99.99,,,0.00,LWC V2.10 B1813,2013-01-02 16:16:00,
2013-01-02 11:21:00,23.9,10.1,32.27,WSW,237,3.1,4.9,55,-99.99,,,0.00,LWC V2.10 B1813,2013-01-02 16:21:00,
2013-01-02 11:26:00,24.8,10.1,32.27,SSW,211,3.6,4.0,53,-99.99,,,0.00,LWC V2.10 B1813,2013-01-02 16:26:00,
2013-01-02 11:31:00,25.0,9.9,32.27,SW,230,2.7,2.7,52,-99.99,,,0.00,LWC V2.10 B1813,2013-01-02 16:31:00,
2013-01-02 11:36:00,24.1,8.6,32.27,WSW,244,3.1,4.0,51,-99.99,,,0.00,LWC V2.10 B1813,2013-01-02 16:36:00,
2013-01-02 11:41:00,24.1,9.5,32.27,SW,228,3.6,3.6,53,-99.99,,,0.00,LWC V2.10 B1813,2013-01-02 16:41:00,
2013-01-02 11:46:00,24.8,9.7,32.27,SW,227,3.6,4.0,52,-99.99,,,0.00,LWC V2.10 B1813,2013-01-02 16:46:00,
2013-01-02 11:51:00,22.6,7.3,32.27,WSW,258,2.2,4.0,51,-99.99,,,0.00,LWC V2.10 B1813,2013-01-02 16:51:00,
2013-01-02 11:56:00,24.4,9.4,32.27,SSW,203,3.6,5.8,52,-99.99,,,0.00,LWC V2.10 B1813,2013-01-02 16:56:00,
2013-01-02 12:01:00,23.5,7.7,32.27,WSW,252,3.1,4.9,50,-99.99,,,0.00,LWC V2.10 B1813,2013-01-02 17:01:00,
2013-01-02 12:06:00,24.4,8.9,32.27,SW,232,2.7,3.6,51,-99.99,,,0.00,LWC V2.10 B1813,2013-01-02 17:06:00,
2013-01-02 12:12:00,23.2,7.8,32.27,WSW,237,5.4,5.4,51,-99.99,,,0.00,LWC V2.10 B1813,2013-01-02 17:12:00,
2013-01-02 12:17:00,25.3,9.8,32.27,West,272,0.0,0.0,51,-99.99,,,0.00,LWC V2.10 B1813,2013-01-02 17:17:00,
2013-01-02 12:22:00,26.2,8.8,32.27,South,183,3.6,4.9,47,-99.99,,,0.00,LWC V2.10 B1813,2013-01-02 17:22:00,
2013-01-02 12:27:00,25.0,7.2,32.27,West,268,5.4,5.4,46,-99.99,,,0.00,LWC V2.10 B1813,2013-01-02 17:27:00,
2013-01-02 12:32:00,24.4,7.6,32.27,SW,227,2.7,4.9,48,-99.99,,,0.00,LWC V2.10 B1813,2013-01-02 17:32:00,
2013-01-02 12:37:00,24.3,7.9,32.27,NW,305,4.0,4.0,49,-99.99,,,0.00,LWC V2.10 B1813,2013-01-02 17:37:00,
2013-01-02 12:42:00,26.1,9.1,32.27,South,180,3.6,3.6,48,-99.99,,,0.00,LWC V2.10 B1813,2013-01-02 17:42:00,
2013-01-02 12:47:00,27.3,9.3,32.27,SW,228,5.4,5.8,46,-99.99,,,0.00,LWC V2.10 B1813,2013-01-02 17:47:00,
2013-01-02 12:52:00,25.7,7.3,32.27,SW,220,5.8,6.7,45,-99.99,,,0.00,LWC V2.10 B1813,2013-01-02 17:52:00,
2013-01-02 12:57:00,26.2,8.3,32.27,WSW,237,2.7,4.0,46,-99.99,,,0.00,LWC V2.10 B1813,2013-01-02 17:57:00,
2013-01-02 13:02:00,27.1,9.1,32.27,SSW,210,2.7,3.6,46,-99.99,,,0.00,LWC V2.10 B1813,2013-01-02 18:02:00,
2013-01-02 13:07:00,26.2,7.3,32.27,WSW,251,5.4,5.8,44,-99.99,,,0.00,LWC V2.10 B1813,2013-01-02 18:07:00,
2013-01-02 13:12:00,27.3,8.8,32.27,WSW,237,3.6,4.9,45,-99.99,,,0.00,LWC V2.10 B1813,2013-01-02 18:12:00,
2013-01-02 13:17:00,29.5,10.8,32.27,SSE,158,3.1,4.9,45,-99.99,,,0.00,LWC V2.10 B1813,2013-01-02 18:17:00,
2013-01-02 13:22:00,29.7,9.9,32.27,SSW,194,4.0,4.9,43,-99.99,,,0.00,LWC V2.10 B1813,2013-01-02 18:22:00,
2013-01-02 13:27:00,30.4,9.5,32.27,SSW,196,5.4,6.3,41,-99.99,,,0.00,LWC V2.10 B1813,2013-01-02 18:27:00,
2013-01-02 13:32:00,31.3,10.3,32.27,SSW,204,3.1,6.3,41,-99.99,,,0.00,LWC V2.10 B1813,2013-01-02 18:32:00,
2013-01-02 13:37:00,28.4,8.3,32.27,SW,215,3.1,6.3,42,-99.99,,,0.00,LWC V2.10 B1813,2013-01-02 18:37:00,
2013-01-02 13:42:00,30.4,9.5,32.27,South,184,4.0,6.3,41,-99.99,,,0.00,LWC V2.10 B1813,2013-01-02 18:42:00,
2013-01-02 13:47:00,31.6,10.7,32.27,South,190,4.0,5.8,41,-99.99,,,0.00,LWC V2.10 B1813,2013-01-02 18:47:00,
2013-01-02 13:52:00,33.1,11.4,32.27,South,170,2.2,3.1,40,-99.99,,,0.00,LWC V2.10 B1813,2013-01-02 18:52:00,
2013-01-02 13:57:00,31.3,9.8,32.27,SSW,198,6.3,8.3,40,-99.99,,,0.00,LWC V2.10 B1813,2013-01-02 18:57:00,
2013-01-02 14:02:00,32.2,10.6,32.27,South,175,3.1,7.6,40,-99.99,,,0.00,LWC V2.10 B1813,2013-01-02 19:02:00,
2013-01-02 14:06:00,30.2,8.3,32.27,NW,306,0.0,5.8,39,-99.99,,,0.00,LWC V2.10 B1813,2013-01-02 19:06:00,
2013-01-02 14:11:00,27.9,6.7,32.27,WSW,257,5.8,6.7,40,-99.99,,,0.00,LWC V2.10 B1813,2013-01-02 19:11:00,
2013-01-02 14:16:00,26.8,6.8,32.27,West,259,5.8,5.8,42,-99.99,,,0.00,LWC V2.10 B1813,2013-01-02 19:16:00,
2013-01-02 14:21:00,28.2,7.6,32.27,West,278,4.0,7.6,41,-99.99,,,0.00,LWC V2.10 B1813,2013-01-02 19:21:00,
2013-01-02 14:26:00,28.0,7.4,32.27,West,281,0.0,4.9,41,-99.99,,,0.00,LWC V2.10 B1813,2013-01-02 19:26:00,
2013-01-02 14:31:00,28.6,7.9,32.27,WSW,238,6.7,6.7,41,-99.99,,,0.00,LWC V2.10 B1813,2013-01-02 19:31:00,
2013-01-02 14:36:00,28.6,7.9,32.27,WSW,244,4.9,5.8,41,-99.99,,,0.00,LWC V2.10 B1813,2013-01-02 19:36:00,
2013-01-02 14:41:00,29.1,8.4,32.27,SW,222,2.7,4.0,41,-99.99,,,0.00,LWC V2.10 B1813,2013-01-02 19:41:00,
2013-01-02 14:46:00,30.2,9.4,32.27,SSE,156,2.7,4.0,41,-99.99,,,0.00,LWC V2.10 B1813,2013-01-02 19:46:00,
2013-01-02 14:51:00,30.6,9.1,32.27,SSW,193,4.0,4.0,40,-99.99,,,0.00,LWC V2.10 B1813,2013-01-02 19:51:00,
2013-01-02 14:56:00,31.1,9.6,32.27,SSW,204,5.4,6.3,40,-99.99,,,0.00,LWC V2.10 B1813,2013-01-02 19:56:00,
2013-01-02 15:01:00,32.2,10.6,32.27,South,186,2.7,4.9,40,-99.99,,,0.00,LWC V2.10 B1813,2013-01-02 20:01:00,
2013-01-02 15:06:00,31.3,8.7,32.27,WSW,238,3.6,7.6,38,-99.99,,,0.00,LWC V2.10 B1813,2013-01-02 20:06:00,
2013-01-02 15:11:00,30.7,8.2,32.27,SW,232,5.4,5.8,38,-99.99,,,0.00,LWC V2.10 B1813,2013-01-02 20:11:00,
2013-01-02 15:16:00,29.5,7.0,32.27,WSW,248,4.9,5.4,38,-99.99,,,0.00,LWC V2.10 B1813,2013-01-02 20:16:00,
2013-01-02 15:21:00,29.1,7.8,32.27,SSW,193,4.0,4.9,40,-99.99,,,0.00,LWC V2.10 B1813,2013-01-02 20:21:00,
2013-01-02 15:26:00,28.6,6.8,32.27,SW,219,4.9,5.8,39,-99.99,,,0.00,LWC V2.10 B1813,2013-01-02 20:26:00,
2013-01-02 15:31:00,28.9,7.7,32.27,SW,220,3.6,3.6,40,-99.99,,,0.00,LWC V2.10 B1813,2013-01-02 20:31:00,
2013-01-02 15:36:00,27.3,6.8,32.27,SW,231,5.4,5.8,41,-99.99,,,0.00,LWC V2.10 B1813,2013-01-02 20:36:00,
2013-01-02 15:41:00,28.0,7.4,32.27,South,183,2.2,4.9,41,-99.99,,,0.00,LWC V2.10 B1813,2013-01-02 20:41:00,
2013-01-02 15:46:00,28.0,7.4,32.27,South,179,3.6,5.8,41,-99.99,,,0.00,LWC V2.10 B1813,2013-01-02 20:46:00,
2013-01-02 15:51:00,27.9,7.2,32.27,South,170,4.0,5.8,41,-99.99,,,0.00,LWC V2.10 B1813,2013-01-02 20:51:00,
2013-01-02 15:56:00,27.1,6.6,32.27,SSW,200,3.6,5.8,41,-99.99,,,0.00,LWC V2.10 B1813,2013-01-02 20:56:00,
2013-01-02 16:01:00,26.4,6.5,32.27,SSW,198,4.0,4.0,42,-99.99,,,0.00,LWC V2.10 B1813,2013-01-02 21:01:00,
2013-01-02 16:06:00,25.5,5.7,32.27,South,186,4.0,4.5,42,-99.99,,,0.00,LWC V2.10 B1813,2013-01-02 21:06:00,
2013-01-02 16:11:00,25.3,5.5,32.27,WSW,257,2.7,4.9,42,-99.99,,,0.00,LWC V2.10 B1813,2013-01-02 21:11:00,
2013-01-02 16:16:00,25.0,5.2,32.27,South,176,0.0,3.6,42,-99.99,,,0.00,LWC V2.10 B1813,2013-01-02 21:16:00,
2013-01-02 16:21:00,24.8,6.0,32.27,SW,235,2.7,5.4,44,-99.99,,,0.00,LWC V2.10 B1813,2013-01-02 21:21:00,
2013-01-02 16:26:00,24.6,5.4,32.27,SSW,202,2.7,5.4,43,-99.99,,,0.00,LWC V2.10 B1813,2013-01-02 21:26:00,
2013-01-02 16:31:00,24.4,5.2,32.27,SW,233,4.9,5.8,43,-99.99,,,0.00,LWC V2.10 B1813,2013-01-02 21:31:00,
2013-01-02 16:36:00,24.4,5.7,32.27,South,175,3.1,4.0,44,-99.99,,,0.00,LWC V2.10 B1813,2013-01-02 21:36:00,
2013-01-02 16:42:00,24.1,4.9,32.27,SW,221,5.8,5.8,43,-99.99,,,0.00,LWC V2.10 B1813,2013-01-02 21:42:00,
2013-01-02 16:47:00,23.9,5.2,32.27,SSW,203,5.4,5.8,44,-99.99,,,0.00,LWC V2.10 B1813,2013-01-02 21:47:00,
2013-01-02 16:52:00,23.7,5.5,32.27,SW,217,4.0,4.0,45,-99.99,,,0.00,LWC V2.10 B1813,2013-01-02 21:52:00,
2013-01-02 16:57:00,23.4,4.7,32.27,SW,216,3.1,5.4,44,-99.99,,,0.00,LWC V2.10 B1813,2013-01-02 21:57:00,
2013-01-02 17:02:00,23.0,5.3,32.27,SW,227,3.6,4.9,46,-99.99,,,0.00,LWC V2.10 B1813,2013-01-02 22:02:00,
2013-01-02 17:07:00,22.5,4.4,32.27,SW,217,2.7,4.9,45,-99.99,,,0.00,LWC V2.10 B1813,2013-01-02 22:07:00,
2013-01-02 17:12:00,22.3,4.2,32.27,SSW,207,0.0,3.1,45,-99.99,,,0.00,LWC V2.10 B1813,2013-01-02 22:12:00,
2013-01-02 17:17:00,21.9,4.8,32.27,SW,225,2.2,3.6,47,-99.99,,,0.00,LWC V2.10 B1813,2013-01-02 22:17:00,
2013-01-02 17:22:00,21.6,4.5,32.27,SSW,206,2.7,4.0,47,-99.99,,,0.00,LWC V2.10 B1813,2013-01-02 22:22:00,
2013-01-02 17:27:00,21.4,4.3,32.27,SW,232,0.0,0.0,47,-99.99,,,0.00,LWC V2.10 B1813,2013-01-02 22:27:00,
2013-01-02 17:32:00,21.2,4.6,32.27,SW,224,3.1,3.1,48,-99.99,,,0.00,LWC V2.10 B1813,2013-01-02 22:32:00,
2013-01-02 17:37:00,21.2,5.1,32.27,WSW,240,3.1,3.1,49,-99.99,,,0.00,LWC V2.10 B1813,2013-01-02 22:37:00,
2013-01-02 17:42:00,21.2,5.1,32.27,WSW,240,2.2,3.6,49,-99.99,,,0.00,LWC V2.10 B1813,2013-01-02 22:42:00,
2013-01-02 17:47:00,21.0,4.4,32.27,SW,225,2.7,4.5,48,-99.99,,,0.00,LWC V2.10 B1813,2013-01-02 22:47:00,
2013-01-02 17:50:00,21.0,4.4,32.27,SW,225,3.1,3.1,48,-99.99,,,0.00,LWC V2.10 B1813,2013-01-02 22:50:00,
2013-01-02 17:55:00,20.7,4.1,32.27,SW,226,0.0,0.0,48,-99.99,,,0.00,LWC V2.10 B1813,2013-01-02 22:55:00,
2013-01-02 18:00:00,20.5,4.4,32.27,SW,226,0.0,0.0,49,-99.99,,,0.00,LWC V2.10 B1813,2013-01-02 23:00:00,
2013-01-02 18:05:00,20.5,4.8,32.27,WSW,252,2.2,3.1,50,-99.99,,,0.00,LWC V2.10 B1813,2013-01-02 23:05:00,
2013-01-02 18:10:00,20.5,5.3,32.27,WSW,252,0.0,0.0,51,-99.99,,,0.00,LWC V2.10 B1813,2013-01-02 23:10:00,
2013-01-02 18:15:00,20.3,5.5,32.27,WSW,252,0.0,0.0,52,-99.99,,,0.00,LWC V2.10 B1813,2013-01-02 23:15:00,
2013-01-02 18:20:00,20.1,5.8,32.27,WSW,252,0.0,0.0,53,-99.99,,,0.00,LWC V2.10 B1813,2013-01-02 23:20:00,
2013-01-02 18:25:00,20.3,5.9,32.27,WSW,251,0.0,0.0,53,-99.99,,,0.00,LWC V2.10 B1813,2013-01-02 23:25:00,
2013-01-02 18:30:00,20.3,5.9,32.27,WSW,251,0.0,0.0,53,-99.99,,,0.00,LWC V2.10 B1813,2013-01-02 23:30:00,
2013-01-02 18:35:00,20.1,5.3,32.27,WSW,251,0.0,0.0,52,-99.99,,,0.00,LWC V2.10 B1813,2013-01-02 23:35:00,
2013-01-02 18:40:00,19.8,5.4,32.27,WSW,252,0.0,0.0,53,-99.99,,,0.00,LWC V2.10 B1813,2013-01-02 23:40:00,
2013-01-02 18:45:00,19.6,6.1,32.27,WSW,251,0.0,0.0,55,-99.99,,,0.00,LWC V2.10 B1813,2013-01-02 23:45:00,
2013-01-02 18:50:00,19.6,6.1,32.27,WSW,252,0.0,0.0,55,-99.99,,,0.00,LWC V2.10 B1813,2013-01-02 23:50:00,
2013-01-02 18:55:00,19.6,6.5,32.27,WSW,251,0.0,0.0,56,-99.99,,,0.00,LWC V2.10 B1813,2013-01-02 23:55:00,
2013-01-02 19:00:00,19.6,6.5,32.27,WSW,252,0.0,0.0,56,-99.99,,,0.00,LWC V2.10 B1813,2013-01-03 00:00:00,
2013-01-02 19:05:00,19.8,6.6,32.27,WSW,252,0.0,3.6,56,-99.99,,,0.00,LWC V2.10 B1813,2013-01-03 00:05:00,
2013-01-02 19:10:00,20.1,7.0,32.27,WSW,251,0.0,0.0,56,-99.99,,,0.00,LWC V2.10 B1813,2013-01-03 00:10:00,
2013-01-02 19:15:00,19.9,6.8,32.27,WSW,251,0.0,0.0,56,-99.99,,,0.00,LWC V2.10 B1813,2013-01-03 00:15:00,
2013-01-02 19:20:00,19.9,6.8,32.27,WSW,252,0.0,0.0,56,-99.99,,,0.00,LWC V2.10 B1813,2013-01-03 00:20:00,
2013-01-02 19:25:00,19.9,6.8,32.27,WSW,251,2.2,3.1,56,-99.99,,,0.00,LWC V2.10 B1813,2013-01-03 00:25:00,
2013-01-02 19:30:00,19.8,7.0,32.27,WSW,251,0.0,2.7,57,-99.99,,,0.00,LWC V2.10 B1813,2013-01-03 00:30:00,
2013-01-02 19:35:00,19.9,6.8,32.27,WSW,252,3.1,3.6,56,-99.99,,,0.00,LWC V2.10 B1813,2013-01-03 00:35:00,
2013-01-02 19:40:00,20.3,6.7,32.27,West,270,3.1,4.9,55,-99.99,,,0.00,LWC V2.10 B1813,2013-01-03 00:40:00,
2013-01-02 19:45:00,20.5,6.5,32.27,West,268,2.7,2.7,54,-99.99,,,0.00,LWC V2.10 B1813,2013-01-03 00:45:00,
2013-01-02 19:50:00,20.3,6.3,32.27,WSW,255,0.0,2.2,54,-99.99,,,0.00,LWC V2.10 B1813,2013-01-03 00:50:00,
2013-01-02 19:55:00,20.1,7.0,32.27,SW,222,0.0,4.0,56,-99.99,,,0.00,LWC V2.10 B1813,2013-01-03 00:55:00,
2013-01-02 20:00:00,19.9,6.8,32.27,SW,222,0.0,0.0,56,-99.99,,,0.00,LWC V2.10 B1813,2013-01-03 01:00:00,
2013-01-02 20:05:00,19.8,7.0,32.27,SW,223,0.0,0.0,57,-99.99,,,0.00,LWC V2.10 B1813,2013-01-03 01:05:00,
2013-01-02 20:10:00,19.8,7.4,32.27,SW,223,0.0,0.0,58,-99.99,,,0.00,LWC V2.10 B1813,2013-01-03 01:10:00,
2013-01-02 20:15:00,19.6,7.2,32.27,SW,223,0.0,0.0,58,-99.99,,,0.00,LWC V2.10 B1813,2013-01-03 01:15:00,
2013-01-02 20:20:00,19.6,7.2,32.27,SW,223,0.0,0.0,58,-99.99,,,0.00,LWC V2.10 B1813,2013-01-03 01:20:00,
2013-01-02 20:25:00,19.6,6.9,32.27,SW,223,0.0,0.0,57,-99.99,,,0.00,LWC V2.10 B1813,2013-01-03 01:25:00,
2013-01-02 20:30:00,19.6,7.2,32.27,SW,223,0.0,0.0,58,-99.99,,,0.00,LWC V2.10 B1813,2013-01-03 01:30:00,
2013-01-02 20:35:00,19.4,7.1,32.27,SW,226,0.0,0.0,58,-99.99,,,0.00,LWC V2.10 B1813,2013-01-03 01:35:00,
2013-01-02 20:40:00,19.4,7.1,32.27,SW,225,0.0,0.0,58,-99.99,,,0.00,LWC V2.10 B1813,2013-01-03 01:40:00,
2013-01-02 20:45:00,19.2,6.9,32.27,SW,225,0.0,0.0,58,-99.99,,,0.00,LWC V2.10 B1813,2013-01-03 01:45:00,
2013-01-02 20:50:00,19.2,7.3,32.27,SW,225,0.0,0.0,59,-99.99,,,0.00,LWC V2.10 B1813,2013-01-03 01:50:00,
2013-01-02 20:55:00,19.4,7.4,32.27,SW,225,0.0,0.0,59,-99.99,,,0.00,LWC V2.10 B1813,2013-01-03 01:55:00,
2013-01-02 21:00:00,19.2,7.6,32.27,SW,225,0.0,0.0,60,-99.99,,,0.00,LWC V2.10 B1813,2013-01-03 02:00:00,
2013-01-02 21:05:00,19.0,7.5,32.27,SW,225,0.0,0.0,60,-99.99,,,0.00,LWC V2.10 B1813,2013-01-03 02:05:00,
2013-01-02 21:10:00,19.0,7.8,32.27,SW,225,0.0,0.0,61,-99.99,,,0.00,LWC V2.10 B1813,2013-01-03 02:10:00,
2013-01-02 21:15:00,19.2,8.0,32.27,SW,225,0.0,0.0,61,-99.99,,,0.00,LWC V2.10 B1813,2013-01-03 02:15:00,
2013-01-02 21:20:00,19.0,7.8,32.27,SW,225,0.0,0.0,61,-99.99,,,0.00,LWC V2.10 B1813,2013-01-03 02:20:00,
2013-01-02 21:25:00,19.0,7.8,32.27,SW,225,0.0,0.0,61,-99.99,,,0.00,LWC V2.10 B1813,2013-01-03 02:25:00,
2013-01-02 21:30:00,19.0,7.8,32.27,SW,225,0.0,0.0,61,-99.99,,,0.00,LWC V2.10 B1813,2013-01-03 02:30:00,
2013-01-02 21:35:00,19.2,7.3,32.27,SW,233,0.0,0.0,59,-99.99,,,0.00,LWC V2.10 B1813,2013-01-03 02:35:00,
2013-01-02 21:40:00,19.0,7.1,32.27,WSW,252,2.7,3.6,59,-99.99,,,0.00,LWC V2.10 B1813,2013-01-03 02:40:00,
2013-01-02 21:45:00,19.9,6.4,32.27,West,270,3.6,3.6,55,-99.99,,,0.00,LWC V2.10 B1813,2013-01-03 02:45:00,
2013-01-02 21:50:00,20.3,5.9,32.27,West,276,0.0,4.9,53,-99.99,,,0.00,LWC V2.10 B1813,2013-01-03 02:50:00,
2013-01-02 21:55:00,19.9,5.6,32.27,West,262,0.0,0.0,53,-99.99,,,0.00,LWC V2.10 B1813,2013-01-03 02:55:00,
2013-01-02 22:00:00,19.9,5.6,32.27,West,262,0.0,0.0,53,-99.99,,,0.00,LWC V2.10 B1813,2013-01-03 03:00:00,
2013-01-02 22:05:00,19.8,5.8,32.27,West,262,0.0,0.0,54,-99.99,,,0.00,LWC V2.10 B1813,2013-01-03 03:05:00,
2013-01-02 22:10:00,19.4,5.5,32.27,West,262,0.0,0.0,54,-99.99,,,0.00,LWC V2.10 B1813,2013-01-03 03:10:00,
2013-01-02 22:15:00,19.0,5.6,32.27,West,262,0.0,0.0,55,-99.99,,,0.00,LWC V2.10 B1813,2013-01-03 03:15:00,
2013-01-02 22:20:00,19.0,5.6,32.27,West,262,0.0,0.0,55,-99.99,,,0.00,LWC V2.10 B1813,2013-01-03 03:20:00,
2013-01-02 22:25:00,18.7,5.2,32.27,West,262,0.0,0.0,55,-99.99,,,0.00,LWC V2.10 B1813,2013-01-03 03:25:00,
2013-01-02 22:30:00,18.5,5.1,32.27,West,262,0.0,0.0,55,-99.99,,,0.00,LWC V2.10 B1813,2013-01-03 03:30:00,
2013-01-02 22:35:00,18.1,4.7,32.27,West,262,0.0,0.0,55,-99.99,,,0.00,LWC V2.10 B1813,2013-01-03 03:35:00,
2013-01-02 22:41:00,18.1,5.1,32.27,West,262,0.0,0.0,56,-99.99,,,0.00,LWC V2.10 B1813,2013-01-03 03:41:00,
2013-01-02 22:46:00,18.0,6.1,32.27,West,262,0.0,0.0,59,-99.99,,,0.00,LWC V2.10 B1813,2013-01-03 03:46:00,
2013-01-02 22:51:00,18.0,6.1,32.27,West,262,0.0,0.0,59,-99.99,,,0.00,LWC V2.10 B1813,2013-01-03 03:51:00,
2013-01-02 22:56:00,17.8,5.9,32.27,SSE,162,0.0,0.0,59,-99.99,,,0.00,LWC V2.10 B1813,2013-01-03 03:56:00,
2013-01-02 23:01:00,17.6,6.1,32.27,SSE,162,0.0,0.0,60,-99.99,,,0.00,LWC V2.10 B1813,2013-01-03 04:01:00,
2013-01-02 23:06:00,17.4,6.3,32.27,SSE,162,0.0,0.0,61,-99.99,,,0.00,LWC V2.10 B1813,2013-01-03 04:06:00,
2013-01-02 23:11:00,17.1,6.0,32.27,SSE,162,0.0,0.0,61,-99.99,,,0.00,LWC V2.10 B1813,2013-01-03 04:11:00,
2013-01-02 23:16:00,17.1,6.0,32.27,SSE,162,0.0,0.0,61,-99.99,,,0.00,LWC V2.10 B1813,2013-01-03 04:16:00,
2013-01-02 23:21:00,16.9,5.8,32.27,SSE,162,0.0,0.0,61,-99.99,,,0.00,LWC V2.10 B1813,2013-01-03 04:21:00,
2013-01-02 23:26:00,16.7,6.0,32.27,SSE,162,0.0,0.0,62,-99.99,,,0.00,LWC V2.10 B1813,2013-01-03 04:26:00,
2013-01-02 23:31:00,16.5,5.8,32.27,SSE,162,0.0,0.0,62,-99.99,,,0.00,LWC V2.10 B1813,2013-01-03 04:31:00,
2013-01-02 23:36:00,16.3,6.0,32.27,SSE,162,0.0,0.0,63,-99.99,,,0.00,LWC V2.10 B1813,2013-01-03 04:36:00,
2013-01-02 23:41:00,16.5,6.2,32.27,SSE,162,0.0,0.0,63,-99.99,,,0.00,LWC V2.10 B1813,2013-01-03 04:41:00,
2013-01-02 23:46:00,16.5,6.5,32.27,SSE,162,0.0,0.0,64,-99.99,,,0.00,LWC V2.10 B1813,2013-01-03 04:46:00,
2013-01-02 23:51:00,16.5,6.5,32.27,SSE,162,0.0,0.0,64,-99.99,,,0.00,LWC V2.10 B1813,2013-01-03 04:51:00,
2013-01-02 23:56:00,16.7,7.0,32.27,SSE,162,0.0,0.0,65,-99.99,,,0.00,LWC V2.10 B1813,2013-01-03 04:56:00,